Time,TemperatureF,DewpointF,PressureIn,WindDirection,WindDirectionDegrees,WindSpeedMPH,WindSpeedGustMPH,Humidity,HourlyPrecipIn,Conditions,Clouds,dailyrainin,SolarRadiationWatts/m^2,SoftwareType,DateUTC
2013-02-25 00:04:00,74.3,70.5,29.87,NE,45,3.0,-999.0,88,0.00,,,0.00,0,Wunderground v.1.15,2013-02-24 13:04:00,
2013-02-25 00:09:00,74.3,70.5,29.87,NE,45,3.0,-999.0,88,0.00,,,0.00,0,Wunderground v.1.15,2013-02-24 13:09:00,
2013-02-25 00:14:00,74.3,70.5,29.87,NE,45,3.0,-999.0,88,0.00,,,0.00,0,Wunderground v.1.15,2013-02-24 13:14:00,
2013-02-25 00:19:00,74.3,70.5,29.87,NE,45,3.0,-999.0,88,0.00,,,0.00,0,Wunderground v.1.15,2013-02-24 13:19:00,
2013-02-25 00:24:00,74.3,70.5,29.87,NE,45,3.0,-999.0,88,0.00,,,0.00,0,Wunderground v.1.15,2013-02-24 13:24:00,
2013-02-25 00:29:00,74.3,70.5,29.87,NE,45,3.0,-999.0,88,0.00,,,0.00,0,Wunderground v.1.15,2013-02-24 13:29:00,
2013-02-25 00:34:00,74.3,70.5,29.87,NE,45,3.0,-999.0,88,0.00,,,0.00,0,Wunderground v.1.15,2013-02-24 13:34:00,
2013-02-25 00:39:00,74.3,70.5,29.87,NE,45,3.0,-999.0,88,0.00,,,0.00,0,Wunderground v.1.15,2013-02-24 13:39:00,
2013-02-25 00:44:00,74.3,70.5,29.87,NE,45,3.0,-999.0,88,0.00,,,0.00,0,Wunderground v.1.15,2013-02-24 13:44:00,
2013-02-25 00:49:00,74.1,70.3,29.87,NNE,23,2.0,-999.0,88,0.00,,,0.00,0,Wunderground v.1.15,2013-02-24 13:49:00,
2013-02-25 00:54:00,74.1,70.3,29.87,NNE,23,2.0,-999.0,88,0.00,,,0.00,0,Wunderground v.1.15,2013-02-24 13:54:00,
2013-02-25 00:59:00,74.1,70.3,29.87,NNE,23,2.0,-999.0,88,0.00,,,0.00,0,Wunderground v.1.15,2013-02-24 13:59:00,
2013-02-25 01:04:00,74.1,70.3,29.87,NNE,23,2.0,-999.0,88,0.00,,,0.00,0,Wunderground v.1.15,2013-02-24 14:04:00,
2013-02-25 01:09:00,74.1,70.3,29.87,NNE,23,2.0,-999.0,88,0.00,,,0.00,0,Wunderground v.1.15,2013-02-24 14:09:00,
2013-02-25 01:14:00,74.1,70.3,29.87,NNE,23,2.0,-999.0,88,0.00,,,0.00,0,Wunderground v.1.15,2013-02-24 14:14:00,
2013-02-25 01:19:00,73.6,70.2,29.87,NNE,23,1.0,-999.0,89,0.00,,,0.00,0,Wunderground v.1.15,2013-02-24 14:19:00,
2013-02-25 01:24:00,73.6,70.2,29.87,NNE,23,1.0,-999.0,89,0.00,,,0.00,0,Wunderground v.1.15,2013-02-24 14:24:00,
2013-02-25 01:29:00,73.6,70.2,29.87,NNE,23,1.0,-999.0,89,0.00,,,0.00,0,Wunderground v.1.15,2013-02-24 14:29:00,
2013-02-25 01:34:00,73.6,70.2,29.87,NNE,23,1.0,-999.0,89,0.00,,,0.00,0,Wunderground v.1.15,2013-02-24 14:34:00,
2013-02-25 01:39:00,73.6,70.2,29.87,NNE,23,1.0,-999.0,89,0.00,,,0.00,0,Wunderground v.1.15,2013-02-24 14:39:00,
2013-02-25 01:44:00,73.6,70.2,29.87,NNE,23,1.0,-999.0,89,0.00,,,0.00,0,Wunderground v.1.15,2013-02-24 14:44:00,
2013-02-25 01:49:00,73.3,69.9,29.86,NE,45,1.0,-999.0,89,0.00,,,0.00,0,Wunderground v.1.15,2013-02-24 14:49:00,
2013-02-25 01:54:00,73.3,69.9,29.86,NE,45,1.0,-999.0,89,0.00,,,0.00,0,Wunderground v.1.15,2013-02-24 14:54:00,
2013-02-25 01:59:00,73.3,69.9,29.86,NE,45,1.0,-999.0,89,0.00,,,0.00,0,Wunderground v.1.15,2013-02-24 14:59:00,
2013-02-25 02:04:00,73.3,69.9,29.86,NE,45,1.0,-999.0,89,0.00,,,0.00,0,Wunderground v.1.15,2013-02-24 15:04:00,
2013-02-25 02:09:00,73.3,69.9,29.86,NE,45,1.0,-999.0,89,0.00,,,0.00,0,Wunderground v.1.15,2013-02-24 15:09:00,
2013-02-25 02:14:00,73.3,69.9,29.86,NE,45,1.0,-999.0,89,0.00,,,0.00,0,Wunderground v.1.15,2013-02-24 15:14:00,
2013-02-25 02:19:00,73.1,69.7,29.86,NNE,23,2.0,-999.0,89,0.00,,,0.00,0,Wunderground v.1.15,2013-02-24 15:19:00,
2013-02-25 02:24:00,73.1,69.7,29.86,NNE,23,2.0,-999.0,89,0.00,,,0.00,0,Wunderground v.1.15,2013-02-24 15:24:00,
2013-02-25 02:29:00,73.1,69.7,29.86,NNE,23,2.0,-999.0,89,0.00,,,0.00,0,Wunderground v.1.15,2013-02-24 15:29:00,
2013-02-25 02:34:00,73.1,69.7,29.86,NNE,23,2.0,-999.0,89,0.00,,,0.00,0,Wunderground v.1.15,2013-02-24 15:34:00,
2013-02-25 02:39:00,73.1,69.7,29.86,NNE,23,2.0,-999.0,89,0.00,,,0.00,0,Wunderground v.1.15,2013-02-24 15:39:00,
2013-02-25 02:44:00,73.1,69.7,29.86,NNE,23,2.0,-999.0,89,0.00,,,0.00,0,Wunderground v.1.15,2013-02-24 15:44:00,
2013-02-25 02:49:00,72.9,69.8,29.86,NNE,23,1.0,-999.0,90,0.00,,,0.00,0,Wunderground v.1.15,2013-02-24 15:49:00,
2013-02-25 02:54:00,72.9,69.8,29.86,NNE,23,1.0,-999.0,90,0.00,,,0.00,0,Wunderground v.1.15,2013-02-24 15:54:00,
2013-02-25 02:59:00,72.9,69.8,29.86,NNE,23,1.0,-999.0,90,0.00,,,0.00,0,Wunderground v.1.15,2013-02-24 15:59:00,
2013-02-25 03:04:00,72.9,69.8,29.86,NNE,23,1.0,-999.0,90,0.00,,,0.00,0,Wunderground v.1.15,2013-02-24 16:04:00,
2013-02-25 03:09:00,72.9,69.8,29.86,NNE,23,1.0,-999.0,90,0.00,,,0.00,0,Wunderground v.1.15,2013-02-24 16:09:00,
2013-02-25 03:14:00,72.9,69.8,29.86,NNE,23,1.0,-999.0,90,0.00,,,0.00,0,Wunderground v.1.15,2013-02-24 16:14:00,
2013-02-25 03:19:00,72.7,69.6,29.86,NNE,23,2.0,-999.0,90,0.00,,,0.00,0,Wunderground v.1.15,2013-02-24 16:19:00,
2013-02-25 03:24:00,72.7,69.6,29.86,NNE,23,2.0,-999.0,90,0.00,,,0.00,0,Wunderground v.1.15,2013-02-24 16:24:00,
2013-02-25 03:29:00,72.7,69.6,29.86,NNE,23,2.0,-999.0,90,0.00,,,0.00,0,Wunderground v.1.15,2013-02-24 16:29:00,
2013-02-25 03:34:00,72.7,69.6,29.86,NNE,23,2.0,-999.0,90,0.00,,,0.00,0,Wunderground v.1.15,2013-02-24 16:34:00,
2013-02-25 03:39:00,72.7,69.6,29.86,NNE,23,2.0,-999.0,90,0.00,,,0.00,0,Wunderground v.1.15,2013-02-24 16:39:00,
2013-02-25 03:44:00,72.7,69.6,29.86,NNE,23,2.0,-999.0,90,0.00,,,0.00,0,Wunderground v.1.15,2013-02-24 16:44:00,
2013-02-25 03:49:00,72.4,69.6,29.86,NNE,23,1.0,-999.0,91,0.00,,,0.00,0,Wunderground v.1.15,2013-02-24 16:49:00,
2013-02-25 03:54:00,72.4,69.6,29.86,NNE,23,1.0,-999.0,91,0.00,,,0.00,0,Wunderground v.1.15,2013-02-24 16:54:00,
2013-02-25 03:59:00,72.4,69.6,29.86,NNE,23,1.0,-999.0,91,0.00,,,0.00,0,Wunderground v.1.15,2013-02-24 16:59:00,
2013-02-25 04:04:00,72.4,69.6,29.86,NNE,23,1.0,-999.0,91,0.00,,,0.00,0,Wunderground v.1.15,2013-02-24 17:04:00,
2013-02-25 04:09:00,72.4,69.6,29.86,NNE,23,1.0,-999.0,91,0.00,,,0.00,0,Wunderground v.1.15,2013-02-24 17:09:00,
2013-02-25 04:14:00,72.4,69.6,29.86,NNE,23,1.0,-999.0,91,0.00,,,0.00,0,Wunderground v.1.15,2013-02-24 17:14:00,
2013-02-25 04:19:00,72.1,69.6,29.86,NE,45,1.0,-999.0,92,0.00,,,0.00,0,Wunderground v.1.15,2013-02-24 17:19:00,
2013-02-25 04:24:00,72.1,69.6,29.86,NE,45,1.0,-999.0,92,0.00,,,0.00,0,Wunderground v.1.15,2013-02-24 17:24:00,
2013-02-25 04:29:00,72.1,69.6,29.86,NE,45,1.0,-999.0,92,0.00,,,0.00,0,Wunderground v.1.15,2013-02-24 17:29:00,
2013-02-25 04:34:00,72.1,69.6,29.86,NE,45,1.0,-999.0,92,0.00,,,0.00,0,Wunderground v.1.15,2013-02-24 17:34:00,
2013-02-25 04:39:00,72.1,69.6,29.86,NE,45,1.0,-999.0,92,0.00,,,0.00,0,Wunderground v.1.15,2013-02-24 17:39:00,
2013-02-25 04:44:00,72.1,69.6,29.86,NE,45,1.0,-999.0,92,0.00,,,0.00,0,Wunderground v.1.15,2013-02-24 17:44:00,
2013-02-25 04:49:00,71.8,69.3,29.87,NNE,23,1.0,-999.0,92,0.00,,,0.00,0,Wunderground v.1.15,2013-02-24 17:49:00,
2013-02-25 04:54:00,71.8,69.3,29.87,NNE,23,1.0,-999.0,92,0.00,,,0.00,0,Wunderground v.1.15,2013-02-24 17:54:00,
2013-02-25 04:59:00,71.8,69.3,29.87,NNE,23,1.0,-999.0,92,0.00,,,0.00,0,Wunderground v.1.15,2013-02-24 17:59:00,
2013-02-25 05:04:00,71.8,69.3,29.87,NNE,23,1.0,-999.0,92,0.00,,,0.00,0,Wunderground v.1.15,2013-02-24 18:04:00,
2013-02-25 05:09:00,71.8,69.3,29.87,NNE,23,1.0,-999.0,92,0.00,,,0.00,0,Wunderground v.1.15,2013-02-24 18:09:00,
2013-02-25 05:14:00,71.8,69.3,29.87,NNE,23,1.0,-999.0,92,0.00,,,0.00,0,Wunderground v.1.15,2013-02-24 18:14:00,
2013-02-25 05:19:00,71.5,69.4,29.88,NNE,23,1.0,-999.0,93,0.00,,,0.00,0,Wunderground v.1.15,2013-02-24 18:19:00,
2013-02-25 05:24:00,71.5,69.4,29.88,NNE,23,1.0,-999.0,93,0.00,,,0.00,0,Wunderground v.1.15,2013-02-24 18:24:00,
2013-02-25 05:29:00,71.5,69.4,29.88,NNE,23,1.0,-999.0,93,0.00,,,0.00,0,Wunderground v.1.15,2013-02-24 18:29:00,
2013-02-25 05:34:00,71.5,69.4,29.88,NNE,23,1.0,-999.0,93,0.00,,,0.00,0,Wunderground v.1.15,2013-02-24 18:34:00,
2013-02-25 05:39:00,71.5,69.4,29.88,NNE,23,1.0,-999.0,93,0.00,,,0.00,0,Wunderground v.1.15,2013-02-24 18:39:00,
2013-02-25 05:44:00,71.5,69.4,29.88,NNE,23,1.0,-999.0,93,0.00,,,0.00,0,Wunderground v.1.15,2013-02-24 18:44:00,
2013-02-25 05:49:00,71.3,68.9,29.88,NNE,23,1.0,-999.0,92,0.00,,,0.00,0,Wunderground v.1.15,2013-02-24 18:49:00,
2013-02-25 05:54:00,71.3,68.9,29.88,NNE,23,1.0,-999.0,92,0.00,,,0.00,0,Wunderground v.1.15,2013-02-24 18:54:00,
2013-02-25 05:59:00,71.3,68.9,29.88,NNE,23,1.0,-999.0,92,0.00,,,0.00,0,Wunderground v.1.15,2013-02-24 18:59:00,
2013-02-25 06:04:00,71.3,68.9,29.88,NNE,23,1.0,-999.0,92,0.00,,,0.00,0,Wunderground v.1.15,2013-02-24 19:04:00,
2013-02-25 06:09:00,71.3,68.9,29.88,NNE,23,1.0,-999.0,92,0.00,,,0.00,0,Wunderground v.1.15,2013-02-24 19:09:00,
2013-02-25 06:14:00,71.3,68.9,29.88,NNE,23,1.0,-999.0,92,0.00,,,0.00,0,Wunderground v.1.15,2013-02-24 19:14:00,
2013-02-25 06:19:00,71.0,68.9,29.89,NNE,23,1.0,-999.0,93,0.00,,,0.00,0,Wunderground v.1.15,2013-02-24 19:19:00,
2013-02-25 06:24:00,71.0,68.9,29.89,NNE,23,1.0,-999.0,93,0.00,,,0.00,0,Wunderground v.1.15,2013-02-24 19:24:00,
2013-02-25 06:29:00,71.0,68.9,29.89,NNE,23,1.0,-999.0,93,0.00,,,0.00,0,Wunderground v.1.15,2013-02-24 19:29:00,
2013-02-25 06:34:00,71.0,68.9,29.89,NNE,23,1.0,-999.0,93,0.00,,,0.00,0,Wunderground v.1.15,2013-02-24 19:34:00,
2013-02-25 06:39:00,71.0,68.9,29.89,NNE,23,1.0,-999.0,93,0.00,,,0.00,0,Wunderground v.1.15,2013-02-24 19:39:00,
2013-02-25 06:44:00,71.0,68.9,29.89,NNE,23,1.0,-999.0,93,0.00,,,0.00,0,Wunderground v.1.15,2013-02-24 19:44:00,
2013-02-25 06:49:00,71.0,68.9,29.90,NNE,23,1.0,-999.0,93,0.00,,,0.00,10,Wunderground v.1.15,2013-02-24 19:49:00,
2013-02-25 06:54:00,71.0,68.9,29.90,NNE,23,1.0,-999.0,93,0.00,,,0.00,10,Wunderground v.1.15,2013-02-24 19:54:00,
2013-02-25 06:59:00,71.0,68.9,29.90,NNE,23,1.0,-999.0,93,0.00,,,0.00,10,Wunderground v.1.15,2013-02-24 19:59:00,
2013-02-25 07:04:00,71.0,68.9,29.90,NNE,23,1.0,-999.0,93,0.00,,,0.00,10,Wunderground v.1.15,2013-02-24 20:04:00,
2013-02-25 07:09:00,71.0,68.9,29.90,NNE,23,1.0,-999.0,93,0.00,,,0.00,10,Wunderground v.1.15,2013-02-24 20:09:00,
2013-02-25 07:14:00,71.0,68.9,29.90,NNE,23,1.0,-999.0,93,0.00,,,0.00,10,Wunderground v.1.15,2013-02-24 20:14:00,
2013-02-25 07:19:00,71.3,69.2,29.91,NE,45,2.0,-999.0,93,0.00,,,0.00,34,Wunderground v.1.15,2013-02-24 20:19:00,
2013-02-25 07:24:00,71.3,69.2,29.91,NE,45,2.0,-999.0,93,0.00,,,0.00,34,Wunderground v.1.15,2013-02-24 20:24:00,
2013-02-25 07:29:00,71.3,69.2,29.91,NE,45,2.0,-999.0,93,0.00,,,0.00,34,Wunderground v.1.15,2013-02-24 20:29:00,
2013-02-25 07:34:00,71.3,69.2,29.91,NE,45,2.0,-999.0,93,0.00,,,0.00,34,Wunderground v.1.15,2013-02-24 20:34:00,
2013-02-25 07:39:00,71.3,69.2,29.91,NE,45,2.0,-999.0,93,0.00,,,0.00,34,Wunderground v.1.15,2013-02-24 20:39:00,
2013-02-25 07:44:00,71.3,69.2,29.91,NE,45,2.0,-999.0,93,0.00,,,0.00,34,Wunderground v.1.15,2013-02-24 20:44:00,
2013-02-25 07:49:00,72.2,69.4,29.92,NNE,23,3.0,-999.0,91,0.00,,,0.00,37,Wunderground v.1.15,2013-02-24 20:49:00,
2013-02-25 07:54:00,72.2,69.4,29.92,NNE,23,3.0,-999.0,91,0.00,,,0.00,37,Wunderground v.1.15,2013-02-24 20:54:00,
2013-02-25 07:59:00,72.2,69.4,29.92,NNE,23,3.0,-999.0,91,0.00,,,0.00,37,Wunderground v.1.15,2013-02-24 20:59:00,
2013-02-25 08:04:00,72.2,69.4,29.92,NNE,23,3.0,-999.0,91,0.00,,,0.00,37,Wunderground v.1.15,2013-02-24 21:04:00,
2013-02-25 08:09:00,72.2,69.4,29.92,NNE,23,3.0,-999.0,91,0.00,,,0.00,37,Wunderground v.1.15,2013-02-24 21:09:00,
2013-02-25 08:14:00,72.2,69.4,29.92,NNE,23,3.0,-999.0,91,0.00,,,0.00,37,Wunderground v.1.15,2013-02-24 21:14:00,
2013-02-25 08:19:00,74.3,70.5,29.92,North,5,3.0,3.0,88,0.00,,,0.00,134,Wunderground v.1.15,2013-02-24 21:19:00,
2013-02-25 08:24:00,74.8,70.7,29.92,NNE,33,3.0,3.0,87,0.00,,,0.00,60,Wunderground v.1.15,2013-02-24 21:24:00,
2013-02-25 08:29:00,75.2,70.7,29.93,NE,53,3.0,3.0,86,0.00,,,0.00,51,Wunderground v.1.15,2013-02-24 21:29:00,
2013-02-25 08:34:00,73.8,69.3,29.93,NE,45,3.0,-999.0,86,0.00,,,0.00,97,Wunderground v.1.15,2013-02-24 21:34:00,
2013-02-25 08:39:00,75.8,71.0,29.94,NNE,30,2.0,2.0,85,0.00,,,0.00,83,Wunderground v.1.15,2013-02-24 21:39:00,
2013-02-25 08:44:00,76.1,70.9,29.94,NNW,343,2.0,2.0,84,0.00,,,0.00,250,Wunderground v.1.15,2013-02-24 21:44:00,
2013-02-25 08:49:00,76.7,71.1,29.94,NE,36,3.0,5.0,83,0.00,,,0.00,369,Wunderground v.1.15,2013-02-24 21:49:00,
2013-02-25 08:54:00,76.3,70.0,29.95,NE,45,2.0,-999.0,81,0.00,,,0.00,244,Wunderground v.1.15,2013-02-24 21:54:00,
2013-02-25 08:59:00,78.0,71.7,29.94,NNW,331,3.0,4.0,81,0.00,,,0.00,450,Wunderground v.1.15,2013-02-24 21:59:00,
2013-02-25 09:04:00,78.6,71.5,29.95,NE,41,3.0,3.0,79,0.00,,,0.00,431,Wunderground v.1.15,2013-02-24 22:04:00,
2013-02-25 09:09:00,78.9,71.8,29.95,ENE,61,3.0,3.0,79,0.00,,,0.00,413,Wunderground v.1.15,2013-02-24 22:09:00,
2013-02-25 09:14:00,79.2,71.7,29.95,NNE,28,3.0,3.0,78,0.00,,,0.00,503,Wunderground v.1.15,2013-02-24 22:14:00,
2013-02-25 09:19:00,79.6,72.1,29.95,NNW,348,3.0,4.0,78,0.00,,,0.00,550,Wunderground v.1.15,2013-02-24 22:19:00,
2013-02-25 09:24:00,79.1,71.6,29.95,NE,45,3.0,-999.0,78,0.00,,,0.00,441,Wunderground v.1.15,2013-02-24 22:24:00,
2013-02-25 09:29:00,79.8,72.3,29.95,ENE,77,3.0,3.0,78,0.00,,,0.00,431,Wunderground v.1.15,2013-02-24 22:29:00,
2013-02-25 09:34:00,79.1,71.6,29.95,NE,45,3.0,-999.0,78,0.00,,,0.00,441,Wunderground v.1.15,2013-02-24 22:34:00,
2013-02-25 09:39:00,79.3,72.2,29.95,ENE,69,3.0,3.0,79,0.00,,,0.00,221,Wunderground v.1.15,2013-02-24 22:39:00,
2013-02-25 09:44:00,80.0,72.5,29.96,NNE,30,4.0,4.0,78,0.00,,,0.00,629,Wunderground v.1.15,2013-02-24 22:44:00,
2013-02-25 09:49:00,79.9,72.0,29.96,NE,36,4.0,4.0,77,0.00,,,0.00,517,Wunderground v.1.15,2013-02-24 22:49:00,
2013-02-25 09:54:00,80.1,71.8,29.96,NNE,33,4.0,7.0,76,0.00,,,0.00,376,Wunderground v.1.15,2013-02-24 22:54:00,
2013-02-25 09:59:00,80.5,72.2,29.96,NNE,24,4.0,7.0,76,0.00,,,0.00,397,Wunderground v.1.15,2013-02-24 22:59:00,
2013-02-25 10:04:00,79.9,71.7,29.96,NE,45,4.0,-999.0,76,0.00,,,0.00,458,Wunderground v.1.15,2013-02-24 23:04:00,
2013-02-25 10:09:00,81.1,72.0,29.96,NNE,31,4.0,7.0,74,0.00,,,0.00,450,Wunderground v.1.15,2013-02-24 23:09:00,
2013-02-25 10:14:00,81.8,72.3,29.96,NNE,33,3.0,3.0,73,0.00,,,0.00,573,Wunderground v.1.15,2013-02-24 23:14:00,
2013-02-25 10:19:00,81.6,72.5,29.96,North,360,3.0,3.0,74,0.00,,,0.00,606,Wunderground v.1.15,2013-02-24 23:19:00,
2013-02-25 10:24:00,81.5,72.4,29.96,ENE,59,3.0,3.0,74,0.00,,,0.00,290,Wunderground v.1.15,2013-02-24 23:24:00,
2013-02-25 10:29:00,80.6,72.3,29.96,NE,50,3.0,4.0,76,0.00,,,0.00,323,Wunderground v.1.15,2013-02-24 23:29:00,
2013-02-25 10:34:00,81.3,72.6,29.96,ENE,68,3.0,-999.0,75,0.00,,,0.00,448,Wunderground v.1.15,2013-02-24 23:34:00,
2013-02-25 10:39:00,80.7,72.4,29.96,ENE,57,4.0,4.0,76,0.00,,,0.00,366,Wunderground v.1.15,2013-02-24 23:39:00,
2013-02-25 10:44:00,81.3,72.6,29.96,ENE,68,3.0,-999.0,75,0.00,,,0.00,448,Wunderground v.1.15,2013-02-24 23:44:00,
2013-02-25 10:49:00,81.0,72.7,29.96,NE,34,4.0,4.0,76,0.00,,,0.00,455,Wunderground v.1.15,2013-02-24 23:49:00,
2013-02-25 10:54:00,81.0,72.3,29.96,NE,43,4.0,4.0,75,0.00,,,0.00,230,Wunderground v.1.15,2013-02-24 23:54:00,
2013-02-25 10:59:00,81.1,72.8,29.96,North,11,3.0,6.0,76,0.00,,,0.00,566,Wunderground v.1.15,2013-02-24 23:59:00,
2013-02-25 11:04:00,81.3,72.6,29.96,East,96,4.0,4.0,75,0.00,,,0.00,531,Wunderground v.1.15,2013-02-25 00:04:00,
2013-02-25 11:09:00,81.0,72.3,29.96,NE,45,4.0,4.0,75,0.00,,,0.00,276,Wunderground v.1.15,2013-02-25 00:09:00,
2013-02-25 11:14:00,80.8,72.9,29.96,NE,45,4.0,-999.0,77,0.00,,,0.00,392,Wunderground v.1.15,2013-02-25 00:14:00,
2013-02-25 11:19:00,83.5,73.5,29.96,NE,55,3.0,4.0,72,0.00,,,0.00,260,Wunderground v.1.15,2013-02-25 00:19:00,
2013-02-25 11:24:00,82.1,72.6,29.96,NE,53,4.0,4.0,73,0.00,,,0.00,638,Wunderground v.1.15,2013-02-25 00:24:00,
2013-02-25 11:29:00,82.2,73.1,29.96,ENE,67,4.0,4.0,74,0.00,,,0.00,587,Wunderground v.1.15,2013-02-25 00:29:00,
2013-02-25 11:34:00,82.0,72.9,29.96,NE,45,4.0,-999.0,74,0.00,,,0.00,477,Wunderground v.1.15,2013-02-25 00:34:00,
2013-02-25 11:39:00,81.5,72.4,29.96,NE,36,5.0,8.0,74,0.00,,,0.00,464,Wunderground v.1.15,2013-02-25 00:39:00,
2013-02-25 11:44:00,81.6,72.9,29.96,ENE,57,5.0,5.0,75,0.00,,,0.00,875,Wunderground v.1.15,2013-02-25 00:44:00,
2013-02-25 11:49:00,82.4,72.5,29.96,NE,43,5.0,5.0,72,0.00,,,0.00,476,Wunderground v.1.15,2013-02-25 00:49:00,
2013-02-25 11:54:00,82.2,71.4,29.96,NE,45,5.0,-999.0,70,0.00,,,0.00,510,Wunderground v.1.15,2013-02-25 00:54:00,
2013-02-25 11:59:00,82.9,72.5,29.96,NE,40,5.0,7.0,71,0.00,,,0.00,721,Wunderground v.1.15,2013-02-25 00:59:00,
2013-02-25 12:04:00,82.8,72.8,29.95,ENE,74,4.0,4.0,72,0.00,,,0.00,408,Wunderground v.1.15,2013-02-25 01:04:00,
2013-02-25 12:09:00,82.2,71.4,29.96,NE,45,5.0,-999.0,70,0.00,,,0.00,510,Wunderground v.1.15,2013-02-25 01:09:00,
2013-02-25 12:14:00,84.0,72.7,29.95,NE,51,4.0,4.0,69,0.00,,,0.00,557,Wunderground v.1.15,2013-02-25 01:14:00,
2013-02-25 12:19:00,84.0,72.7,29.95,NNW,340,4.0,4.0,69,0.00,,,0.00,343,Wunderground v.1.15,2013-02-25 01:19:00,
2013-02-25 12:24:00,83.3,72.5,29.94,ENE,61,4.0,4.0,70,0.00,,,0.00,378,Wunderground v.1.15,2013-02-25 01:24:00,
2013-02-25 12:29:00,83.9,72.6,29.94,ENE,62,4.0,4.0,69,0.00,,,0.00,478,Wunderground v.1.15,2013-02-25 01:29:00,
2013-02-25 12:34:00,83.6,72.3,29.94,NE,45,4.0,-999.0,69,0.00,,,0.00,471,Wunderground v.1.15,2013-02-25 01:34:00,
2013-02-25 12:39:00,85.6,73.4,29.94,NNE,26,4.0,6.0,67,0.00,,,0.00,425,Wunderground v.1.15,2013-02-25 01:39:00,
2013-02-25 12:44:00,83.6,72.3,29.94,NE,45,4.0,-999.0,69,0.00,,,0.00,471,Wunderground v.1.15,2013-02-25 01:44:00,
2013-02-25 12:49:00,84.5,71.9,29.93,NE,43,4.0,4.0,66,0.00,,,0.00,515,Wunderground v.1.15,2013-02-25 01:49:00,
2013-02-25 12:54:00,84.0,72.7,29.93,NE,43,4.0,5.0,69,0.00,,,0.00,877,Wunderground v.1.15,2013-02-25 01:54:00,
2013-02-25 12:59:00,85.7,73.0,29.93,North,350,4.0,5.0,66,0.00,,,0.00,990,Wunderground v.1.15,2013-02-25 01:59:00,
2013-02-25 13:04:00,87.1,73.0,29.93,NE,35,3.0,4.0,63,0.00,,,0.00,983,Wunderground v.1.15,2013-02-25 02:04:00,
2013-02-25 13:09:00,86.7,73.1,29.93,NE,34,4.0,8.0,64,0.00,,,0.00,726,Wunderground v.1.15,2013-02-25 02:09:00,
2013-02-25 13:14:00,84.9,72.3,29.93,NE,45,4.0,-999.0,66,0.00,,,0.00,568,Wunderground v.1.15,2013-02-25 02:14:00,
2013-02-25 13:19:00,86.0,73.8,29.92,NE,37,3.0,4.0,67,0.00,,,0.00,471,Wunderground v.1.15,2013-02-25 02:19:00,
2013-02-25 13:24:00,84.5,72.3,29.92,ENE,78,2.0,5.0,67,0.00,,,0.00,555,Wunderground v.1.15,2013-02-25 02:24:00,
2013-02-25 13:29:00,84.3,73.0,29.92,ESE,109,3.0,5.0,69,0.00,,,0.00,353,Wunderground v.1.15,2013-02-25 02:29:00,
2013-02-25 13:34:00,86.0,74.6,29.92,NE,45,3.0,-999.0,69,0.00,,,0.00,757,Wunderground v.1.15,2013-02-25 02:34:00,
2013-02-25 13:39:00,83.0,72.6,29.92,East,83,4.0,5.0,71,0.00,,,0.00,624,Wunderground v.1.15,2013-02-25 02:39:00,
2013-02-25 13:44:00,84.2,73.3,29.92,ENE,78,3.0,4.0,70,0.00,,,0.00,1055,Wunderground v.1.15,2013-02-25 02:44:00,
2013-02-25 13:49:00,84.1,71.5,29.91,ENE,68,4.0,-999.0,66,0.00,,,0.00,835,Wunderground v.1.15,2013-02-25 02:49:00,
2013-02-25 13:54:00,84.8,73.1,29.91,East,83,5.0,5.0,68,0.00,,,0.00,1037,Wunderground v.1.15,2013-02-25 02:54:00,
2013-02-25 13:59:00,85.9,73.2,29.91,NE,44,4.0,7.0,66,0.00,,,0.00,991,Wunderground v.1.15,2013-02-25 02:59:00,
2013-02-25 14:04:00,85.7,73.0,29.91,NE,38,3.0,3.0,66,0.00,,,0.00,930,Wunderground v.1.15,2013-02-25 03:04:00,
2013-02-25 14:09:00,86.8,74.1,29.91,ENE,62,3.0,7.0,66,0.00,,,0.00,912,Wunderground v.1.15,2013-02-25 03:09:00,
2013-02-25 14:14:00,86.2,73.0,29.91,ENE,61,4.0,4.0,65,0.00,,,0.00,904,Wunderground v.1.15,2013-02-25 03:14:00,
2013-02-25 14:19:00,86.2,74.4,29.90,ENE,68,4.0,-999.0,68,0.00,,,0.00,891,Wunderground v.1.15,2013-02-25 03:19:00,
2013-02-25 14:24:00,86.6,73.9,29.90,NE,46,4.0,5.0,66,0.00,,,0.00,517,Wunderground v.1.15,2013-02-25 03:24:00,
2013-02-25 14:29:00,85.3,73.5,29.90,ENE,76,4.0,5.0,68,0.00,,,0.00,914,Wunderground v.1.15,2013-02-25 03:29:00,
2013-02-25 14:34:00,86.2,74.4,29.90,ENE,68,4.0,-999.0,68,0.00,,,0.00,891,Wunderground v.1.15,2013-02-25 03:34:00,
2013-02-25 14:39:00,86.0,72.9,29.90,East,97,5.0,7.0,65,0.00,,,0.00,1009,Wunderground v.1.15,2013-02-25 03:39:00,
2013-02-25 14:44:00,86.9,73.3,29.90,North,5,5.0,7.0,64,0.00,,,0.00,946,Wunderground v.1.15,2013-02-25 03:44:00,
2013-02-25 14:49:00,86.8,72.7,29.90,NNE,30,5.0,7.0,63,0.00,,,0.00,893,Wunderground v.1.15,2013-02-25 03:49:00,
2013-02-25 14:54:00,86.7,73.1,29.90,East,87,5.0,10.0,64,0.00,,,0.00,886,Wunderground v.1.15,2013-02-25 03:54:00,
2013-02-25 14:59:00,86.4,73.2,29.90,NNE,28,5.0,10.0,65,0.00,,,0.00,838,Wunderground v.1.15,2013-02-25 03:59:00,
2013-02-25 15:04:00,86.3,73.1,29.90,NE,45,5.0,-999.0,65,0.00,,,0.00,841,Wunderground v.1.15,2013-02-25 04:04:00,
2013-02-25 15:09:00,85.9,73.2,29.90,NE,35,5.0,7.0,66,0.00,,,0.00,807,Wunderground v.1.15,2013-02-25 04:09:00,
2013-02-25 15:14:00,86.0,72.9,29.89,NE,55,4.0,4.0,65,0.00,,,0.00,800,Wunderground v.1.15,2013-02-25 04:14:00,
2013-02-25 15:19:00,85.9,73.2,29.90,ENE,68,4.0,-999.0,66,0.00,,,0.00,797,Wunderground v.1.15,2013-02-25 04:19:00,
2013-02-25 15:24:00,85.0,73.3,29.90,NE,41,5.0,5.0,68,0.00,,,0.00,780,Wunderground v.1.15,2013-02-25 04:24:00,
2013-02-25 15:29:00,86.0,73.3,29.90,NNE,23,4.0,5.0,66,0.00,,,0.00,766,Wunderground v.1.15,2013-02-25 04:29:00,
2013-02-25 15:34:00,85.9,73.2,29.90,ENE,68,4.0,-999.0,66,0.00,,,0.00,797,Wunderground v.1.15,2013-02-25 04:34:00,
2013-02-25 15:39:00,85.9,72.3,29.90,NNE,26,4.0,5.0,64,0.00,,,0.00,722,Wunderground v.1.15,2013-02-25 04:39:00,
2013-02-25 15:44:00,85.3,72.6,29.89,East,80,3.0,3.0,66,0.00,,,0.00,728,Wunderground v.1.15,2013-02-25 04:44:00,
2013-02-25 15:49:00,84.7,73.0,29.89,NNE,22,4.0,4.0,68,0.00,,,0.00,670,Wunderground v.1.15,2013-02-25 04:49:00,
2013-02-25 15:54:00,85.4,73.2,29.89,ENE,68,4.0,-999.0,67,0.00,,,0.00,715,Wunderground v.1.15,2013-02-25 04:54:00,
2013-02-25 15:59:00,84.7,72.1,29.89,ENE,59,4.0,4.0,66,0.00,,,0.00,657,Wunderground v.1.15,2013-02-25 04:59:00,
2013-02-25 16:04:00,84.2,72.0,29.89,NE,44,4.0,4.0,67,0.00,,,0.00,698,Wunderground v.1.15,2013-02-25 05:04:00,
2013-02-25 16:09:00,83.7,71.6,29.89,SSE,153,4.0,6.0,67,0.00,,,0.00,570,Wunderground v.1.15,2013-02-25 05:09:00,
2013-02-25 16:14:00,82.9,71.7,29.89,East,97,5.0,6.0,69,0.00,,,0.00,545,Wunderground v.1.15,2013-02-25 05:14:00,
2013-02-25 16:19:00,83.7,72.9,29.89,ENE,67,4.0,6.0,70,0.00,,,0.00,638,Wunderground v.1.15,2013-02-25 05:19:00,
2013-02-25 16:24:00,83.3,72.1,29.89,SSW,207,4.0,4.0,69,0.00,,,0.00,578,Wunderground v.1.15,2013-02-25 05:24:00,
2013-02-25 16:29:00,83.6,72.8,29.89,ENE,68,4.0,-999.0,70,0.00,,,0.00,607,Wunderground v.1.15,2013-02-25 05:29:00,
2013-02-25 16:34:00,83.2,72.0,29.89,ENE,69,4.0,4.0,69,0.00,,,0.00,617,Wunderground v.1.15,2013-02-25 05:34:00,
2013-02-25 16:39:00,83.6,72.8,29.89,ENE,68,4.0,-999.0,70,0.00,,,0.00,607,Wunderground v.1.15,2013-02-25 05:39:00,
2013-02-25 16:44:00,82.1,71.8,29.89,ENE,63,5.0,5.0,71,0.00,,,0.00,452,Wunderground v.1.15,2013-02-25 05:44:00,
2013-02-25 16:49:00,82.3,72.0,29.89,East,87,5.0,11.0,71,0.00,,,0.00,520,Wunderground v.1.15,2013-02-25 05:49:00,
2013-02-25 16:54:00,82.3,71.5,29.89,ENE,58,5.0,7.0,70,0.00,,,0.00,508,Wunderground v.1.15,2013-02-25 05:54:00,
2013-02-25 16:59:00,82.4,72.0,29.89,ENE,69,5.0,7.0,71,0.00,,,0.00,376,Wunderground v.1.15,2013-02-25 05:59:00,
2013-02-25 17:04:00,82.0,72.1,29.89,East,98,4.0,4.0,72,0.00,,,0.00,408,Wunderground v.1.15,2013-02-25 06:04:00,
2013-02-25 17:09:00,82.6,72.2,29.89,NE,45,5.0,-999.0,71,0.00,,,0.00,542,Wunderground v.1.15,2013-02-25 06:09:00,
2013-02-25 17:14:00,82.2,71.9,29.89,East,82,5.0,5.0,71,0.00,,,0.00,316,Wunderground v.1.15,2013-02-25 06:14:00,
2013-02-25 17:19:00,81.9,72.0,29.89,ENE,63,5.0,11.0,72,0.00,,,0.00,290,Wunderground v.1.15,2013-02-25 06:19:00,
2013-02-25 17:24:00,81.4,71.9,29.89,ENE,58,4.0,4.0,73,0.00,,,0.00,244,Wunderground v.1.15,2013-02-25 06:24:00,
2013-02-25 17:29:00,81.6,72.1,29.89,ENE,59,4.0,4.0,73,0.00,,,0.00,251,Wunderground v.1.15,2013-02-25 06:29:00,
2013-02-25 17:34:00,82.0,72.5,29.89,ENE,68,4.0,-999.0,73,0.00,,,0.00,333,Wunderground v.1.15,2013-02-25 06:34:00,
2013-02-25 17:39:00,81.0,71.9,29.89,NE,54,5.0,6.0,74,0.00,,,0.00,285,Wunderground v.1.15,2013-02-25 06:39:00,
2013-02-25 17:44:00,81.0,71.5,29.89,ENE,61,5.0,5.0,73,0.00,,,0.00,214,Wunderground v.1.15,2013-02-25 06:44:00,
2013-02-25 17:49:00,80.9,71.8,29.89,ENE,68,5.0,-999.0,74,0.00,,,0.00,230,Wunderground v.1.15,2013-02-25 06:49:00,
2013-02-25 17:54:00,80.3,71.6,29.89,East,92,5.0,5.0,75,0.00,,,0.00,199,Wunderground v.1.15,2013-02-25 06:54:00,
2013-02-25 17:59:00,80.4,71.3,29.89,East,80,4.0,5.0,74,0.00,,,0.00,179,Wunderground v.1.15,2013-02-25 06:59:00,
2013-02-25 18:04:00,80.0,71.4,29.90,NE,35,4.0,4.0,75,0.00,,,0.00,171,Wunderground v.1.15,2013-02-25 07:04:00,
2013-02-25 18:09:00,79.5,71.3,29.90,NE,54,5.0,5.0,76,0.00,,,0.00,151,Wunderground v.1.15,2013-02-25 07:09:00,
2013-02-25 18:14:00,80.9,71.8,29.89,ENE,68,5.0,-999.0,74,0.00,,,0.00,230,Wunderground v.1.15,2013-02-25 07:14:00,
2013-02-25 18:19:00,79.2,71.4,29.90,NE,53,2.0,4.0,77,0.00,,,0.00,130,Wunderground v.1.15,2013-02-25 07:19:00,
2013-02-25 18:24:00,79.1,71.3,29.90,ENE,67,2.0,4.0,77,0.00,,,0.00,118,Wunderground v.1.15,2013-02-25 07:24:00,
2013-02-25 18:29:00,78.7,70.9,29.90,ENE,67,2.0,4.0,77,0.00,,,0.00,104,Wunderground v.1.15,2013-02-25 07:29:00,
2013-02-25 18:34:00,79.5,71.7,29.90,ENE,68,3.0,-999.0,77,0.00,,,0.00,141,Wunderground v.1.15,2013-02-25 07:34:00,
2013-02-25 18:39:00,78.0,70.6,29.91,NE,56,2.0,5.0,78,0.00,,,0.00,74,Wunderground v.1.15,2013-02-25 07:39:00,
2013-02-25 18:44:00,77.5,70.5,29.90,ENE,71,3.0,4.0,79,0.00,,,0.00,63,Wunderground v.1.15,2013-02-25 07:44:00,
2013-02-25 18:49:00,77.6,71.3,29.91,ENE,68,3.0,-999.0,81,0.00,,,0.00,64,Wunderground v.1.15,2013-02-25 07:49:00,
2013-02-25 18:54:00,76.9,70.3,29.91,East,81,4.0,4.0,80,0.00,,,0.00,42,Wunderground v.1.15,2013-02-25 07:54:00,
2013-02-25 18:59:00,76.7,70.4,29.91,ENE,76,3.0,4.0,81,0.00,,,0.00,35,Wunderground v.1.15,2013-02-25 07:59:00,
2013-02-25 19:04:00,76.5,70.2,29.91,ESE,104,3.0,5.0,81,0.00,,,0.00,26,Wunderground v.1.15,2013-02-25 08:04:00,
2013-02-25 19:09:00,76.3,70.0,29.91,East,88,4.0,5.0,81,0.00,,,0.00,19,Wunderground v.1.15,2013-02-25 08:09:00,
2013-02-25 19:14:00,77.6,71.3,29.91,ENE,68,3.0,-999.0,81,0.00,,,0.00,64,Wunderground v.1.15,2013-02-25 08:14:00,
2013-02-25 19:19:00,76.0,70.1,29.91,NE,36,4.0,5.0,82,0.00,,,0.00,12,Wunderground v.1.15,2013-02-25 08:19:00,
2013-02-25 19:24:00,75.9,70.0,29.91,NE,55,4.0,4.0,82,0.00,,,0.00,7,Wunderground v.1.15,2013-02-25 08:24:00,
2013-02-25 19:29:00,75.8,69.9,29.91,NNE,21,3.0,4.0,82,0.00,,,0.00,0,Wunderground v.1.15,2013-02-25 08:29:00,
2013-02-25 19:34:00,76.2,70.3,29.92,ENE,68,4.0,-999.0,82,0.00,,,0.00,16,Wunderground v.1.15,2013-02-25 08:34:00,
2013-02-25 19:39:00,75.5,70.0,29.92,ENE,74,4.0,4.0,83,0.00,,,0.00,0,Wunderground v.1.15,2013-02-25 08:39:00,
2013-02-25 19:44:00,75.4,69.9,29.92,NE,44,4.0,4.0,83,0.00,,,0.00,0,Wunderground v.1.15,2013-02-25 08:44:00,
2013-02-25 19:49:00,75.3,69.8,29.92,ENE,67,4.0,4.0,83,0.00,,,0.00,0,Wunderground v.1.15,2013-02-25 08:49:00,
2013-02-25 19:54:00,75.4,70.2,29.92,ENE,68,4.0,-999.0,84,0.00,,,0.00,0,Wunderground v.1.15,2013-02-25 08:54:00,
2013-02-25 19:59:00,75.1,69.9,29.92,NNE,24,4.0,4.0,84,0.00,,,0.00,0,Wunderground v.1.15,2013-02-25 08:59:00,
2013-02-25 20:04:00,75.0,69.8,29.93,East,86,3.0,3.0,84,0.00,,,0.00,0,Wunderground v.1.15,2013-02-25 09:04:00,
2013-02-25 20:09:00,75.0,69.8,29.93,ENE,59,3.0,5.0,84,0.00,,,0.00,0,Wunderground v.1.15,2013-02-25 09:09:00,
2013-02-25 20:14:00,74.9,69.7,29.93,NE,54,3.0,3.0,84,0.00,,,0.00,0,Wunderground v.1.15,2013-02-25 09:14:00,
2013-02-25 20:19:00,75.0,69.8,29.93,NE,45,3.0,-999.0,84,0.00,,,0.00,0,Wunderground v.1.15,2013-02-25 09:19:00,
2013-02-25 20:24:00,74.8,69.6,29.93,NE,55,3.0,3.0,84,0.00,,,0.00,0,Wunderground v.1.15,2013-02-25 09:24:00,
2013-02-25 20:29:00,74.8,69.6,29.93,ENE,61,4.0,4.0,84,0.00,,,0.00,0,Wunderground v.1.15,2013-02-25 09:29:00,
2013-02-25 20:34:00,75.0,69.8,29.93,NE,45,3.0,-999.0,84,0.00,,,0.00,0,Wunderground v.1.15,2013-02-25 09:34:00,
2013-02-25 20:39:00,74.7,69.5,29.93,NE,53,4.0,4.0,84,0.00,,,0.00,0,Wunderground v.1.15,2013-02-25 09:39:00,
2013-02-25 20:44:00,74.6,69.4,29.93,East,96,4.0,5.0,84,0.00,,,0.00,0,Wunderground v.1.15,2013-02-25 09:44:00,
2013-02-25 20:49:00,74.5,69.3,29.94,North,360,4.0,5.0,84,0.00,,,0.00,0,Wunderground v.1.15,2013-02-25 09:49:00,
2013-02-25 20:54:00,74.4,69.6,29.94,ENE,68,5.0,5.0,85,0.00,,,0.00,0,Wunderground v.1.15,2013-02-25 09:54:00,
2013-02-25 20:59:00,74.6,69.8,29.94,ENE,68,4.0,-999.0,85,0.00,,,0.00,0,Wunderground v.1.15,2013-02-25 09:59:00,
2013-02-25 21:04:00,74.4,69.6,29.94,NNE,30,5.0,7.0,85,0.00,,,0.00,0,Wunderground v.1.15,2013-02-25 10:04:00,
2013-02-25 21:09:00,74.4,69.6,29.94,ENE,76,5.0,7.0,85,0.00,,,0.00,0,Wunderground v.1.15,2013-02-25 10:09:00,
2013-02-25 21:14:00,74.4,69.2,29.95,NE,49,6.0,6.0,84,0.00,,,0.00,0,Wunderground v.1.15,2013-02-25 10:14:00,
2013-02-25 21:19:00,74.4,69.6,29.95,NE,54,5.0,6.0,85,0.00,,,0.00,0,Wunderground v.1.15,2013-02-25 10:19:00,
2013-02-25 21:24:00,74.4,69.6,29.95,ENE,68,5.0,-999.0,85,0.00,,,0.00,0,Wunderground v.1.15,2013-02-25 10:24:00,
2013-02-25 21:29:00,74.4,69.6,29.95,NE,55,5.0,6.0,85,0.00,,,0.00,0,Wunderground v.1.15,2013-02-25 10:29:00,
2013-02-25 21:34:00,74.4,69.6,29.96,ENE,75,5.0,5.0,85,0.00,,,0.00,0,Wunderground v.1.15,2013-02-25 10:34:00,
2013-02-25 21:39:00,74.4,69.6,29.96,ENE,76,5.0,9.0,85,0.00,,,0.00,0,Wunderground v.1.15,2013-02-25 10:39:00,
2013-02-25 21:44:00,74.4,69.6,29.96,NNE,17,5.0,8.0,85,0.00,,,0.00,0,Wunderground v.1.15,2013-02-25 10:44:00,
2013-02-25 21:49:00,74.3,69.5,29.96,ENE,71,5.0,8.0,85,0.00,,,0.00,0,Wunderground v.1.15,2013-02-25 10:49:00,
2013-02-25 21:54:00,74.4,69.6,29.97,NE,45,5.0,-999.0,85,0.00,,,0.00,0,Wunderground v.1.15,2013-02-25 10:54:00,
2013-02-25 21:59:00,74.3,69.5,29.97,North,360,4.0,4.0,85,0.00,,,0.00,0,Wunderground v.1.15,2013-02-25 10:59:00,
2013-02-25 22:04:00,74.2,69.4,29.97,ENE,62,4.0,4.0,85,0.00,,,0.00,0,Wunderground v.1.15,2013-02-25 11:04:00,
2013-02-25 22:09:00,74.2,69.4,29.97,East,98,5.0,11.0,85,0.00,,,0.00,0,Wunderground v.1.15,2013-02-25 11:09:00,
2013-02-25 22:14:00,74.2,69.4,29.97,East,100,5.0,6.0,85,0.00,,,0.00,0,Wunderground v.1.15,2013-02-25 11:14:00,
2013-02-25 22:19:00,74.2,69.4,29.97,NE,45,5.0,-999.0,85,0.00,,,0.00,0,Wunderground v.1.15,2013-02-25 11:19:00,
2013-02-25 22:24:00,74.2,69.4,29.97,East,87,5.0,5.0,85,0.00,,,0.00,0,Wunderground v.1.15,2013-02-25 11:24:00,
2013-02-25 22:29:00,74.1,69.3,29.97,NNE,15,6.0,8.0,85,0.00,,,0.00,0,Wunderground v.1.15,2013-02-25 11:29:00,
2013-02-25 22:34:00,74.2,69.4,29.97,NE,45,5.0,-999.0,85,0.00,,,0.00,0,Wunderground v.1.15,2013-02-25 11:34:00,
2013-02-25 22:39:00,74.1,69.3,29.97,East,86,7.0,10.0,85,0.00,,,0.00,0,Wunderground v.1.15,2013-02-25 11:39:00,
2013-02-25 22:44:00,74.0,69.2,29.97,NNW,342,5.0,5.0,85,0.00,,,0.00,0,Wunderground v.1.15,2013-02-25 11:44:00,
2013-02-25 22:49:00,74.0,69.2,29.97,NW,306,5.0,5.0,85,0.00,,,0.00,0,Wunderground v.1.15,2013-02-25 11:49:00,
2013-02-25 22:54:00,74.0,69.2,29.97,ENE,59,5.0,5.0,85,0.00,,,0.00,0,Wunderground v.1.15,2013-02-25 11:54:00,
2013-02-25 22:59:00,74.0,69.2,29.97,NE,45,5.0,-999.0,85,0.00,,,0.00,0,Wunderground v.1.15,2013-02-25 11:59:00,
2013-02-25 23:04:00,74.0,69.2,29.98,NNE,27,4.0,4.0,85,0.00,,,0.00,0,Wunderground v.1.15,2013-02-25 12:04:00,
2013-02-25 23:09:00,73.9,69.1,29.98,East,101,4.0,8.0,85,0.00,,,0.00,0,Wunderground v.1.15,2013-02-25 12:09:00,
2013-02-25 23:14:00,73.9,69.1,29.98,East,80,5.0,5.0,85,0.00,,,0.00,0,Wunderground v.1.15,2013-02-25 12:14:00,
2013-02-25 23:19:00,73.9,69.1,29.97,NE,45,5.0,-999.0,85,0.00,,,0.00,0,Wunderground v.1.15,2013-02-25 12:19:00,
2013-02-25 23:24:00,73.9,69.1,29.97,East,92,5.0,5.0,85,0.00,,,0.00,0,Wunderground v.1.15,2013-02-25 12:24:00,
2013-02-25 23:29:00,73.9,69.1,29.97,NE,50,5.0,5.0,85,0.00,,,0.00,0,Wunderground v.1.15,2013-02-25 12:29:00,
2013-02-25 23:34:00,73.9,69.1,29.97,NE,45,5.0,-999.0,85,0.00,,,0.00,0,Wunderground v.1.15,2013-02-25 12:34:00,
2013-02-25 23:39:00,73.9,69.1,29.97,ENE,71,5.0,5.0,85,0.00,,,0.00,0,Wunderground v.1.15,2013-02-25 12:39:00,
2013-02-25 23:44:00,73.8,69.0,29.97,NE,40,4.0,4.0,85,0.00,,,0.00,0,Wunderground v.1.15,2013-02-25 12:44:00,
2013-02-25 23:49:00,73.8,69.0,29.97,ENE,68,4.0,-999.0,85,0.00,,,0.00,0,Wunderground v.1.15,2013-02-25 12:49:00,
2013-02-25 23:54:00,73.7,68.9,29.97,NE,51,4.0,4.0,85,0.00,,,0.00,0,Wunderground v.1.15,2013-02-25 12:54:00,
2013-02-25 23:59:00,73.7,68.9,29.97,ENE,69,3.0,4.0,85,0.00,,,0.00,0,Wunderground v.1.15,2013-02-25 12:59:00,